Weather History for Pascagoula, MS

Change the Weather History Date:

Thursday, December 6, 2012

  Actual Average Record
Temperature  
Mean Temperature 63 °F -  
Max Temperature 75 °F 64 °F 80 °F (1961)
Min Temperature 51 °F 45 °F 28 °F (2000)
Degree Days  
Heating Degree Days 2    
Growing Degree Days 13 (Base 50)    
Moisture  
Dew Point 56 °F    
Average Humidity 91    
Maximum Humidity 100    
Minimum Humidity 55    
Precipitation  
Precipitation 0.00 in - - ()
Sea Level Pressure  
Sea Level Pressure 30.00 in    
Wind  
Wind Speed 2 mph (ESE)    
Max Wind Speed 13 mph    
Max Gust Speed -    
Visibility 4 miles    
Events Fog    
Averages and records for this station are not official NWS values.
T = Trace of Precipitation, MM = Missing Value Source: NWS Daily Summary

Daily Weather History Graph

Daily Weather History Graph

Search for Another Location

Airport:

Trip Planner

Search our weather history database for the weather conditions in past years. The results will help you decide how hot, cold, wet, or windy it might be!

Date:

Astronomy

Dec. 06, 2012 Rise Set
Actual Time 6:37 AM CST 4:53 PM CST
Civil Twilight 6:11 AM CST 5:19 PM CST
Nautical Twilight 5:41 AM CST 5:49 PM CST
Astronomical Twilight 5:12 AM CST 6:18 PM CST
Moon No Moon Rise 11:53 AM CST (12/6)
Length of Visible Light 11h 08m
Length of Day
10h 15m
Waning Gibbous, 49% of the Moon is Illuminated
Dec 6
Waning Gibbous
Dec 13
New
Dec 19
First Quarter
Dec 28
Full
Jan 4
Last Quarter

Hourly Weather History & Observations

Time (CST) Temp. Dew Point Humidity Pressure Visibility Wind Dir Wind Speed Gust Speed Precip Events Conditions
12:53 AM 63.0 °F 61.0 °F 93% 30.04 in 10.0 mi East 3.5 mph - 0.00 in   Overcast
1:53 AM 59.0 °F 59.0 °F 100% 30.04 in 1.2 mi Calm Calm - N/A   Partly Cloudy
2:00 AM 60.8 °F 57.2 °F 88% 30.03 in 0.5 mi Calm Calm - N/A Fog Fog
2:11 AM 57.2 °F 57.2 °F 100% 30.02 in 0.8 mi Calm Calm - N/A   Partly Cloudy
2:21 AM 57.2 °F 57.2 °F 100% 30.02 in 0.5 mi Calm Calm - N/A Fog Fog
2:30 AM 57.2 °F 55.4 °F 94% 30.02 in 0.5 mi Calm Calm - N/A Fog Fog
2:39 AM 57.2 °F 55.4 °F 94% 30.01 in 0.2 mi Calm Calm - N/A Fog Fog
2:53 AM 57.9 °F 57.0 °F 97% 30.02 in 0.2 mi Calm Calm - N/A Fog Fog
3:44 AM 55.4 °F 53.6 °F 94% 30.01 in 0.5 mi Calm Calm - N/A Fog Fog
3:53 AM 55.0 °F 54.0 °F 96% 30.01 in 0.2 mi Calm Calm - N/A Fog Fog
4:39 AM 53.6 °F 53.6 °F 100% 30.00 in 0.2 mi Calm Calm - N/A Fog Fog
4:53 AM 54.0 °F 53.1 °F 97% 30.01 in 0.2 mi Calm Calm - N/A Fog Fog
5:27 AM 53.6 °F 51.8 °F 94% 30.01 in 0.2 mi Calm Calm - N/A Fog Fog
5:53 AM 52.0 °F 51.1 °F 97% 30.02 in 0.2 mi Calm Calm - N/A Fog Fog
6:53 AM 52.0 °F 51.1 °F 97% 30.04 in 0.5 mi Calm Calm - N/A Fog Fog
7:27 AM 57.2 °F 55.4 °F 94% 30.04 in 1.2 mi Calm Calm - N/A   Partly Cloudy
7:32 AM 57.2 °F 57.2 °F 100% 30.04 in 3.0 mi Calm Calm - N/A   Clear
7:53 AM 61.0 °F 59.0 °F 93% 30.04 in 10.0 mi NE 3.5 mph - N/A   Clear
8:53 AM 66.0 °F 61.0 °F 84% 30.05 in 10.0 mi East 6.9 mph - N/A   Clear
9:53 AM 71.1 °F 59.0 °F 66% 30.05 in 10.0 mi ESE 9.2 mph - N/A   Partly Cloudy
10:53 AM 73.9 °F 57.9 °F 57% 30.03 in 10.0 mi SE 11.5 mph - 0.00 in   Clear
11:53 AM 75.0 °F 57.9 °F 55% 30.01 in 10.0 mi SSE 10.4 mph - N/A   Partly Cloudy
12:53 PM 73.9 °F 57.9 °F 57% 29.99 in 10.0 mi SE 11.5 mph - N/A   Partly Cloudy
1:53 PM 73.9 °F 59.0 °F 59% 29.97 in 10.0 mi SE 12.7 mph - N/A   Clear
2:53 PM 72.0 °F 60.1 °F 66% 29.97 in 10.0 mi SSE 9.2 mph - N/A   Partly Cloudy
3:53 PM 71.1 °F 61.0 °F 70% 29.97 in 10.0 mi ESE 5.8 mph - N/A   Clear
4:53 PM 68.0 °F 61.0 °F 78% 29.97 in 10.0 mi SE 4.6 mph - N/A   Clear
5:53 PM 64.0 °F 60.1 °F 87% 29.98 in 10.0 mi ESE 3.5 mph - N/A   Clear
6:53 PM 62.1 °F 60.1 °F 93% 29.98 in 10.0 mi Calm Calm - N/A   Clear
7:53 PM 59.0 °F 57.0 °F 93% 29.99 in 10.0 mi Calm Calm - N/A   Clear
8:53 PM 57.0 °F 55.9 °F 96% 29.99 in 10.0 mi Calm Calm - N/A   Clear
9:12 PM 55.4 °F 55.4 °F 100% 29.98 in 1.5 mi Calm Calm - N/A   Clear
9:20 PM 55.4 °F 53.6 °F 94% 29.98 in 0.5 mi Calm Calm - N/A Fog Fog
9:33 PM 55.4 °F 53.6 °F 94% 29.98 in 3.0 mi Calm Calm - N/A   Partly Cloudy
9:38 PM 55.4 °F 55.4 °F 100% 29.98 in 1.8 mi Calm Calm - N/A   Partly Cloudy
9:41 PM 55.4 °F 55.4 °F 100% 29.99 in 0.8 mi Calm Calm - N/A   Mist
9:53 PM 53.1 °F 52.0 °F 96% 29.99 in 0.2 mi Calm Calm - N/A Fog Fog
10:10 PM 51.8 °F 51.8 °F 100% 29.99 in 0.2 mi Calm Calm - N/A Fog Fog
10:17 PM 53.6 °F 53.6 °F 100% 29.99 in 0.2 mi Calm Calm - N/A Fog Fog
10:26 PM 51.8 °F 51.8 °F 100% 29.98 in 0.2 mi Calm Calm - N/A Fog Fog
10:46 PM 53.6 °F 53.6 °F 100% 29.98 in 0.5 mi Calm Calm - N/A Fog Fog
10:53 PM 52.0 °F 52.0 °F 100% 29.98 in 0.2 mi Calm Calm - N/A Fog Fog
11:06 PM 53.6 °F 53.6 °F 100% 29.98 in 0.5 mi Calm Calm - N/A Fog Fog
11:18 PM 51.8 °F 51.8 °F 100% 29.97 in 0.2 mi Calm Calm - N/A Fog Fog
11:31 PM 53.6 °F 51.8 °F 94% 29.97 in 1.0 mi Calm Calm - N/A   Mist
11:39 PM 53.6 °F 51.8 °F 94% 29.97 in 0.5 mi Calm Calm - N/A Fog Fog
11:53 PM 52.0 °F 51.1 °F 97% 29.97 in 0.5 mi Calm Calm - N/A Fog Fog